Location: Baix
(44.7118°N, 4.7648°E)
Time: 10:38:47
(UTC+00:00)

Vanguard 2 Rocket - Pass Details

Date: 30 November 2020
Orbit: 554 x 3325 km, 32.9° (Epoch: 21 January)

Event Time Altitude Azimuth Distance (km) Brightness Sun altitude
Rises 14:23:45 0° 274° (W) 6,329 11.8 12.6°
Reaches altitude 10° 14:33:22 10° 243° (WSW) 4,425 12.1 11.4°
Maximum altitude 14:35:22 11° 233° (SW) 4,166 12.7 11.2°
Drops below altitude 10° 14:37:14 10° 223° (SW) 4,005 14.9 11.0°
Sets 14:43:43 0° 187° (S) 4,228 11.2 10.2°
